| time (UTC) | temp F | wind direction | speed knots | gust knots | rain 1hr in | rain 24hr in | rain mn in | humidity % | barometer mb |
| 20260906130802 | 81 | 37 | 0.0 | 0.0 | 0.00 | 0.00 | 0.00 | 82 | 988.3 |
| 20260906125802 | 78 | 21 | 0.0 | 0.9 | 0.00 | 0.00 | 0.00 | 87 | 988.2 |
| 20260906124801 | 75 | 36 | 0.0 | 0.0 | 0.00 | 0.00 | 0.00 | 94 | 988.1 |
| 20260906123801 | 74 | 17 | 0.0 | 0.0 | 0.00 | 0.00 | 0.00 | 97 | 988.4 |
| 20260906122801 | 73 | 6 | 0.0 | 0.0 | 0.00 | 0.00 | 0.00 | 99 | 988.0 |
| 20260906121800 | 72 | 16 | 0.0 | 0.0 | 0.00 | 0.00 | 0.00 | 99 | 987.8 |
| 20260906120759 | 72 | 7 | 0.0 | 0.0 | 0.00 | 0.00 | 0.00 | 99 | 988.0 |
| 20260906115758 | 72 | 13 | 0.0 | 0.0 | 0.00 | 0.00 | 0.00 | 99 | 988.0 |
| 20260906114758 | 72 | 7 | 0.0 | 0.0 | 0.00 | 0.00 | 0.00 | 99 | 987.8 |
| 20260906113758 | 72 | 9 | 0.0 | 0.0 | 0.00 | 0.00 | 0.00 | 99 | 987.8 |
| 20260906112757 | 72 | 10 | 0.0 | 0.0 | 0.00 | 0.00 | 0.00 | 99 | 987.4 |
| 20260906111757 | 72 | 6 | 0.0 | 0.0 | 0.00 | 0.00 | 0.00 | 99 | 987.4 |
| 20260906110756 | 72 | 10 | 0.0 | 0.0 | 0.00 | 0.00 | 0.00 | 99 | 987.1 |
| 20260906105755 | 72 | 9 | 0.0 | 0.0 | 0.00 | 0.00 | 0.00 | 98 | 987.0 |
| 20260906104755 | 72 | 11 | 0.0 | 0.0 | 0.00 | 0.00 | 0.00 | 98 | 986.9 |
| 20260906103754 | 73 | 14 | 0.0 | 0.0 | 0.00 | 0.00 | 0.00 | 97 | 986.8 |
| 20260906102754 | 73 | 10 | 0.0 | 0.0 | 0.00 | 0.00 | 0.00 | 96 | 986.9 |
| 20260906101755 | 73 | 12 | 0.0 | 0.0 | 0.00 | 0.00 | 0.00 | 96 | 986.9 |
| 20260906100754 | 74 | 12 | 0.0 | 0.0 | 0.00 | 0.00 | 0.00 | 95 | 986.8 |
| 20260906095753 | 74 | 7 | 0.0 | 0.0 | 0.00 | 0.00 | 0.00 | 95 | 987.0 |
| 20260906094754 | 74 | 9 | 0.0 | 0.0 | 0.00 | 0.00 | 0.00 | 94 | 987.0 |
| 20260906093752 | 74 | 0 | 0.0 | 0.0 | 0.00 | 0.00 | 0.00 | 94 | 987.2 |
| 20260906092752 | 74 | 12 | 0.0 | 0.0 | 0.00 | 0.00 | 0.00 | 93 | 987.3 |
| 20260906091751 | 74 | 347 | 0.9 | 0.9 | 0.00 | 0.00 | 0.00 | 94 | 987.4 |
| 20260906090751 | 75 | 2 | 0.0 | 0.0 | 0.00 | 0.00 | 0.00 | 93 | 987.5 |
| 20260906085750 | 76 | 16 | 0.0 | 0.0 | 0.00 | 0.00 | 0.00 | 90 | 987.2 |
| 20260906084750 | 76 | 8 | 0.0 | 0.0 | 0.00 | 0.00 | 0.00 | 90 | 987.6 |
| 20260906083749 | 75 | 19 | 0.0 | 0.9 | 0.00 | 0.00 | 0.00 | 91 | 987.7 |
| 20260906082749 | 75 | 22 | 0.0 | 0.9 | 0.00 | 0.00 | 0.00 | 93 | 987.8 |
| 20260906081749 | 74 | 17 | 1.7 | 2.6 | 0.00 | 0.00 | 0.00 | 95 | 987.8 |
| 20260906080748 | 74 | 3 | 0.0 | 0.0 | 0.00 | 0.00 | 0.00 | 96 | 987.7 |
| 20260906075747 | 74 | 11 | 0.0 | 0.0 | 0.00 | 0.00 | 0.00 | 96 | 987.6 |
| 20260906074746 | 74 | 10 | 0.0 | 0.9 | 0.00 | 0.00 | 0.00 | 96 | 987.4 |
| 20260906073747 | 74 | 17 | 0.0 | 0.9 | 0.00 | 0.00 | 0.00 | 96 | 986.9 |
| 20260906072744 | 74 | 3 | 0.0 | 0.9 | 0.00 | 0.00 | 0.00 | 95 | 987.0 |
| 20260906071744 | 74 | 64 | 0.0 | 0.9 | 0.00 | 0.00 | 0.00 | 97 | 987.0 |
| 20260906070743 | 74 | 6 | 0.0 | 0.0 | 0.00 | 0.00 | 0.00 | 96 | 987.1 |
| 20260906065743 | 74 | 11 | 0.0 | 0.0 | 0.00 | 0.00 | 0.00 | 96 | 987.6 |
| 20260906064741 | 73 | 57 | 1.7 | 2.6 | 0.00 | 0.00 | 0.00 | 97 | 988.1 |
| 20260906063742 | 72 | 47 | 0.0 | 0.0 | 0.00 | 0.00 | 0.00 | 99 | 987.8 |
| 20260906062740 | 72 | 47 | 0.0 | 0.0 | 0.00 | 0.00 | 0.00 | 99 | 987.7 |
| 20260906061739 | 72 | 49 | 0.0 | 0.0 | 0.00 | 0.00 | 0.00 | 99 | 987.8 |
| 20260906060738 | 72 | 43 | 0.0 | 0.0 | 0.00 | 0.00 | 0.00 | 99 | 987.5 |
| 20260906055737 | 72 | 48 | 0.0 | 0.0 | 0.00 | 0.00 | 0.00 | 99 | 987.5 |
| 20260906054736 | 72 | 50 | 0.0 | 0.0 | 0.00 | 0.00 | 0.00 | 99 | 987.5 |
| 20260906053735 | 72 | 50 | 0.0 | 0.0 | 0.00 | 0.00 | 0.00 | 99 | 987.4 |
| 20260906052734 | 72 | 43 | 0.0 | 0.0 | 0.00 | 0.00 | 0.00 | 99 | 987.4 |
| 20260906051733 | 72 | 43 | 0.0 | 0.0 | 0.00 | 0.00 | 0.00 | 99 | 987.5 |
| 20260906050733 | 72 | 44 | 0.0 | 0.0 | 0.00 | 0.00 | 0.00 | 99 | 987.4 |
| 20260906045732 | 72 | 46 | 0.0 | 0.0 | 0.00 | 0.00 | 0.00 | 99 | 987.6 |
| 20260906044732 | 72 | 46 | 0.0 | 0.0 | 0.00 | 0.00 | 0.00 | 99 | 987.8 |
| 20260906043730 | 72 | 46 | 0.0 | 0.0 | 0.00 | 0.00 | 0.00 | 99 | 988.2 |
| 20260906042730 | 73 | 46 | 0.0 | 0.0 | 0.00 | 0.00 | 0.00 | 99 | 988.1 |
| 20260906041729 | 73 | 45 | 0.0 | 0.0 | 0.00 | 0.00 | 0.00 | 99 | 987.8 |
| 20260906040728 | 74 | 46 | 0.0 | 0.0 | 0.00 | 0.00 | 0.00 | 99 | 988.1 |
| 20260906035727 | 73 | 49 | 0.0 | 0.0 | 0.00 | 0.00 | 0.02 | 99 | 988.1 |
| 20260906034726 | 73 | 47 | 0.0 | 0.0 | 0.00 | 0.00 | 0.02 | 98 | 988.0 |
| 20260906033725 | 74 | 46 | 0.0 | 0.0 | 0.00 | 0.00 | 0.02 | 98 | 988.0 |
| 20260906032724 | 74 | 46 | 0.0 | 0.0 | 0.00 | 0.00 | 0.02 | 98 | 988.2 |
| 20260906031723 | 74 | 43 | 0.0 | 0.0 | 0.00 | 0.00 | 0.02 | 97 | 988.2 |
| 20260906030722 | 74 | 47 | 0.0 | 0.9 | 0.00 | 0.00 | 0.02 | 97 | 988.0 |
| 20260906025721 | 74 | 50 | 0.0 | 0.0 | 0.00 | 0.00 | 0.02 | 97 | 988.1 |
| 20260906024720 | 74 | 50 | 0.0 | 0.0 | 0.00 | 0.00 | 0.02 | 96 | 988.2 |
| 20260906023719 | 74 | 50 | 0.0 | 0.0 | 0.00 | 0.00 | 0.02 | 96 | 987.9 |
| 20260906022719 | 75 | 49 | 0.0 | 0.0 | 0.00 | 0.00 | 0.02 | 96 | 987.6 |
| 20260906021718 | 75 | 53 | 0.0 | 0.0 | 0.00 | 0.00 | 0.02 | 96 | 987.6 |
| 20260906020717 | 75 | 49 | 0.0 | 0.0 | 0.00 | 0.00 | 0.02 | 96 | 987.4 |
| 20260906015716 | 75 | 49 | 0.0 | 0.0 | 0.00 | 0.00 | 0.02 | 96 | 987.5 |
| 20260906014715 | 75 | 50 | 0.0 | 0.0 | 0.00 | 0.00 | 0.02 | 96 | 987.5 |
| 20260906013714 | 76 | 51 | 0.0 | 0.0 | 0.00 | 0.00 | 0.02 | 95 | 987.2 |
| 20260906012713 | 76 | 50 | 0.0 | 0.0 | 0.00 | 0.00 | 0.02 | 94 | 987.2 |
| 20260906011712 | 76 | 50 | 0.0 | 0.0 | 0.00 | 0.00 | 0.02 | 93 | 987.1 |
| 20260906010711 | 77 | 54 | 0.0 | 0.0 | 0.00 | 0.00 | 0.02 | 92 | 987.1 |
| 20260906005710 | 78 | 54 | 0.0 | 0.0 | 0.00 | 0.00 | 0.02 | 91 | 986.9 |
| 20260906004709 | 77 | 37 | 0.0 | 0.0 | 0.00 | 0.00 | 0.02 | 91 | 986.8 |
| 20260906003708 | 78 | 28 | 0.0 | 0.0 | 0.00 | 0.00 | 0.02 | 91 | 986.5 |
| 20260906002708 | 78 | 10 | 0.0 | 0.0 | 0.00 | 0.00 | 0.02 | 90 | 986.7 |
| 20260906001707 | 78 | 7 | 0.0 | 0.0 | 0.00 | 0.00 | 0.02 | 88 | 987.0 |
| 20260906000706 | 79 | 0 | 0.0 | 0.0 | 0.00 | 0.00 | 0.02 | 87 | 986.8 |
| 20260905235705 | 80 | 9 | 0.0 | 0.0 | 0.00 | 0.00 | 0.02 | 85 | 986.9 |
| 20260905234705 | 81 | 11 | 0.0 | 0.0 | 0.00 | 0.00 | 0.02 | 82 | 986.9 |
| 20260905233704 | 82 | 23 | 0.0 | 0.9 | 0.00 | 0.00 | 0.02 | 79 | 987.0 |
| 20260905232703 | 84 | 357 | 0.0 | 0.0 | 0.00 | 0.00 | 0.02 | 78 | 986.6 |
| 20260905231702 | 84 | 30 | 0.0 | 0.9 | 0.00 | 0.00 | 0.02 | 77 | 987.0 |
| 20260905230701 | 84 | 9 | 0.0 | 0.0 | 0.00 | 0.00 | 0.02 | 76 | 986.3 |
| 20260905225700 | 84 | 7 | 0.0 | 0.0 | 0.00 | 0.00 | 0.02 | 75 | 986.6 |
| 20260905224659 | 84 | 358 | 0.0 | 0.0 | 0.00 | 0.00 | 0.02 | 73 | 986.6 |
| 20260905223658 | 85 | 12 | 0.0 | 0.0 | 0.00 | 0.00 | 0.02 | 75 | 986.6 |
| 20260905222658 | 85 | 13 | 0.0 | 0.0 | 0.00 | 0.00 | 0.02 | 73 | 986.6 |
| 20260905221657 | 86 | 10 | 0.0 | 0.0 | 0.00 | 0.00 | 0.02 | 71 | 986.7 |
| 20260905220656 | 87 | 22 | 0.0 | 0.0 | 0.00 | 0.00 | 0.02 | 69 | 986.9 |
| 20260905215655 | 89 | 11 | 0.0 | 0.0 | 0.00 | 0.00 | 0.02 | 64 | 987.0 |
| 20260905214654 | 90 | 11 | 0.0 | 0.9 | 0.00 | 0.00 | 0.02 | 62 | 986.9 |
| 20260905213653 | 91 | 292 | 2.6 | 3.5 | 0.00 | 0.00 | 0.02 | 61 | 987.2 |
| 20260905212652 | 92 | 2 | 0.0 | 5.2 | 0.00 | 0.00 | 0.02 | 61 | 987.4 |
| 20260905211651 | 90 | 0 | 0.0 | 0.9 | 0.00 | 0.00 | 0.02 | 64 | 987.4 |
| 20260905210650 | 93 | 1 | 0.0 | 2.6 | 0.00 | 0.00 | 0.02 | 58 | 987.3 |
| 20260905205649 | 90 | 46 | 1.7 | 2.6 | 0.00 | 0.00 | 0.02 | 65 | 987.2 |
| 20260905204648 | 86 | 37 | 0.9 | 1.7 | 0.00 | 0.00 | 0.02 | 68 | 987.4 |
| 20260905203647 | 86 | 7 | 0.9 | 1.7 | 0.00 | 0.00 | 0.02 | 69 | 987.4 |
| 20260905202649 | 86 | 53 | 0.9 | 0.9 | 0.00 | 0.00 | 0.02 | 64 | 987.6 |
| 20260905201646 | 85 | 63 | 0.0 | 3.5 | 0.00 | 0.00 | 0.02 | 67 | 987.3 |
| 20260905200645 | 85 | 348 | 0.0 | 1.7 | 0.00 | 0.00 | 0.02 | 68 | 987.6 |
| 20260905195644 | 89 | 18 | 3.5 | 13.0 | 0.00 | 0.00 | 0.02 | 65 | 987.3 |
| 20260905194643 | 96 | 11 | 0.0 | 0.9 | 0.00 | 0.00 | 0.02 | 56 | 987.0 |
| 20260905193643 | 98 | 7 | 0.0 | 0.9 | 0.00 | 0.00 | 0.02 | 53 | 987.1 |
| 20260905192642 | 97 | 41 | 0.9 | 1.7 | 0.00 | 0.00 | 0.02 | 52 | 987.1 |
| 20260905191641 | 97 | 321 | 1.7 | 3.5 | 0.00 | 0.00 | 0.02 | 50 | 987.3 |
| 20260905190640 | 94 | 19 | 0.0 | 1.7 | 0.00 | 0.00 | 0.02 | 56 | 987.4 |
| 20260905185640 | 95 | 2 | 0.0 | 0.0 | 0.00 | 0.00 | 0.02 | 56 | 987.7 |
| 20260905184639 | 97 | 273 | 0.9 | 3.5 | 0.00 | 0.00 | 0.02 | 55 | 987.6 |
| 20260905183638 | 93 | 8 | 0.9 | 1.7 | 0.00 | 0.00 | 0.02 | 60 | 987.5 |
| 20260905182637 | 90 | 93 | 1.7 | 1.7 | 0.00 | 0.00 | 0.02 | 70 | 987.7 |
| 20260905181636 | 85 | 2 | 0.0 | 0.0 | 0.00 | 0.00 | 0.02 | 89 | 988.0 |
| 20260905180636 | 83 | 12 | 0.0 | 0.0 | 0.00 | 0.00 | 0.02 | 96 | 988.1 |
| 20260905175635 | 85 | 9 | 0.0 | 0.0 | 0.00 | 0.00 | 0.02 | 93 | 988.1 |
| 20260905174634 | 86 | 13 | 0.0 | 0.0 | 0.00 | 0.00 | 0.02 | 88 | 988.1 |
| 20260905173633 | 96 | 28 | 1.7 | 2.6 | 0.00 | 0.00 | 0.00 | 63 | 988.4 |
| 20260905172632 | 98 | 358 | 1.7 | 5.2 | 0.00 | 0.00 | 0.00 | 54 | 988.1 |
| 20260905171631 | 99 | 2 | 0.0 | 1.7 | 0.00 | 0.00 | 0.00 | 54 | 988.1 |
| 20260905170631 | 96 | 348 | 0.9 | 2.6 | 0.00 | 0.00 | 0.00 | 58 | 988.3 |
| 20260905165630 | 97 | 32 | 0.0 | 2.6 | 0.00 | 0.00 | 0.00 | 56 | 988.3 |
| 20260905164630 | 98 | 50 | 0.9 | 3.5 | 0.00 | 0.00 | 0.00 | 55 | 988.4 |
| 20260905163629 | 96 | 13 | 0.9 | 3.5 | 0.00 | 0.00 | 0.00 | 57 | 988.8 |
| 20260905162628 | 97 | 15 | 0.9 | 0.9 | 0.00 | 0.00 | 0.00 | 56 | 988.9 |
| 20260905161627 | 96 | 114 | 0.9 | 3.5 | 0.00 | 0.00 | 0.00 | 59 | 988.9 |
| 20260905160626 | 96 | 9 | 0.9 | 1.7 | 0.00 | 0.00 | 0.00 | 59 | 988.8 |
| 20260905155625 | 96 | 13 | 0.0 | 0.9 | 0.00 | 0.00 | 0.00 | 58 | 989.0 |
| 20260905154624 | 95 | 12 | 0.9 | 1.7 | 0.00 | 0.00 | 0.00 | 58 | 989.0 |
| 20260905153623 | 95 | 45 | 0.9 | 1.7 | 0.00 | 0.00 | 0.00 | 58 | 989.2 |
| 20260905152622 | 93 | 29 | 1.7 | 1.7 | 0.00 | 0.00 | 0.00 | 63 | 989.2 |
| 20260905151621 | 92 | 27 | 0.9 | 1.7 | 0.00 | 0.00 | 0.00 | 65 | 989.4 |
| 20260905150620 | 91 | 24 | 0.9 | 0.9 | 0.00 | 0.00 | 0.00 | 66 | 989.3 |
| 20260905145620 | 91 | 20 | 0.0 | 0.9 | 0.00 | 0.00 | 0.00 | 67 | 989.5 |
| 20260905144619 | 90 | 322 | 0.0 | 0.9 | 0.00 | 0.00 | 0.00 | 68 | 989.5 |
| 20260905143618 | 90 | 19 | 1.7 | 1.7 | 0.00 | 0.00 | 0.00 | 68 | 989.7 |
| 20260905142617 | 89 | 12 | 0.0 | 0.9 | 0.00 | 0.00 | 0.00 | 69 | 989.6 |
| 20260905141616 | 88 | 34 | 0.9 | 0.9 | 0.00 | 0.00 | 0.00 | 73 | 989.7 |
| 20260905140615 | 88 | 29 | 0.0 | 0.9 | 0.00 | 0.00 | 0.00 | 73 | 989.8 |
| 20260905135614 | 85 | 335 | 0.9 | 0.9 | 0.00 | 0.00 | 0.00 | 79 | 989.9 |
| 20260905134613 | 86 | 14 | 0.0 | 0.0 | 0.00 | 0.00 | 0.00 | 76 | 989.9 |
| 20260905133612 | 85 | 17 | 0.0 | 0.0 | 0.00 | 0.00 | 0.00 | 78 | 989.8 |
| 20260905132611 | 85 | 9 | 0.0 | 0.0 | 0.00 | 0.00 | 0.00 | 81 | 990.1 |
| 20260905131611 | 82 | 13 | 0.0 | 0.0 | 0.00 | 0.00 | 0.00 | 84 | 989.9 |